Theta_e
292 292 292 292 293 293 293 293 294 294 294 294 294 293 291 292 290 289 288 288 288 288 288 287 287 287 286 285 285 284 284 283 284 280 280 280 279 279 279 279 279 280 281
291 292 292 292 291 292 292 293 293 293 293 293 293 293 291 290 291 290 287 287 287 287 287 286 285 285 284 284 284 283 283 282 282 281 278 278 278 279 279 279 279 279 280
290 290 291 292 292 291 291 291 291 292 292 292 292 291 290 290 288 288 288 286 286 286 286 286 285 284 283 283 283 282 281 281 280 279 278 278 278 279 279 279 279 279 281
289 289 290 290 290 292 291 291 291 291 290 290 290 291 291 290 288 287 286 286 286 286 285 286 285 285 284 283 282 281 280 279 278 277 276 276 276 278 277 277 278 278 279
289 289 289 289 288 288 292 292 291 291 290 290 289 289 289 289 289 286 285 285 284 284 284 284 284 285 285 285 283 280 279 277 276 276 276 276 276 277 278 278 277 278 278
288 289 288 288 287 286 288 291 291 290 290 289 288 287 287 287 287 287 287 284 284 283 282 282 282 282 283 283 283 283 282 278 275 275 276 277 277 278 277 277 277 279 280
286 287 288 287 285 285 286 288 291 289 289 289 288 287 286 286 286 286 286 285 284 283 282 281 280 280 281 281 280 280 279 278 279 279 277 278 278 278 277 277 278 278 278
284 284 285 284 282 284 285 285 287 288 286 287 287 286 286 286 286 286 286 284 283 283 282 281 280 279 280 280 280 279 277 277 277 277 278 278 278 277 277 278 277 276 274
282 282 282 280 280 283 284 284 284 286 285 284 285 285 285 285 285 286 286 285 282 282 281 280 279 279 280 279 279 278 277 276 277 278 278 278 277 278 278 277 275 273 273
280 280 278 278 278 282 282 282 283 283 284 284 283 284 284 284 284 285 286 286 282 281 280 279 279 278 279 280 279 278 278 278 278 278 277 278 279 277 276 274 273 272 272
277 276 275 275 276 278 279 281 281 282 282 282 282 282 282 283 282 284 286 286 281 280 279 278 277 278 279 280 278 278 278 277 277 276 277 277 276 275 273 272 272 272 271
274 272 272 272 272 274 275 277 280 280 281 280 280 280 280 280 280 282 284 287 282 280 279 278 277 279 279 281 279 276 277 276 276 275 275 274 273 272 271 271 271 271 271
270 269 269 269 269 271 272 274 278 280 279 280 279 279 279 278 279 281 282 286 282 279 278 278 277 279 280 281 280 277 277 276 275 274 272 272 271 271 270 270 270 269 269
266 266 266 266 267 268 269 272 275 279 280 279 280 279 279 277 277 278 281 284 282 281 278 278 278 280 280 280 281 279 277 277 275 273 272 271 270 269 269 269 269 268 268
264 264 264 264 265 266 268 270 273 277 279 280 280 279 279 278 277 278 279 282 283 280 277 277 278 280 279 279 279 275 274 274 273 272 270 269 268 268 268 268 267 267 266
262 262 262 263 263 264 266 267 270 273 277 281 281 281 279 280 280 279 280 282 282 279 277 277 278 279 276 276 275 273 273 274 272 271 269 268 268 268 267 267 267 266 266
261 261 261 262 262 263 264 267 269 271 277 280 281 282 282 281 280 280 281 282 283 280 277 277 278 278 276 275 273 272 270 271 271 269 268 268 267 267 266 266 266 266 266
261 261 261 261 262 262 264 266 268 271 274 277 278 280 283 283 282 280 281 283 282 280 278 278 277 276 274 273 272 271 270 269 268 267 267 267 266 266 265 265 265 265 265
261 261 261 261 262 262 263 265 267 269 271 276 277 278 279 283 283 280 281 283 282 280 276 276 274 274 272 272 271 270 268 267 267 266 266 266 266 266 266 265 265 265 264
261 261 262 263 263 263 264 265 267 269 272 275 276 276 278 281 283 281 281 281 283 280 274 273 273 272 271 270 268 268 267 266 266 266 266 266 265 266 266 265 265 264 264
262 262 262 263 263 263 264 265 267 270 273 274 274 275 277 279 281 280 280 281 279 273 273 271 271 269 268 268 268 267 267 266 266 266 266 265 266 266 266 265 265 265 264
263 263 264 264 265 264 264 266 268 271 273 272 273 274 277 279 280 279 278 275 272 270 271 272 269 268 268 268 269 268 266 266 266 266 266 266 266 266 266 265 265 264 263
262 263 264 266 267 267 266 267 270 271 271 272 273 274 275 272 271 270 269 269 269 270 270 271 270 267 268 269 269 268 267 266 266 266 266 266 266 266 266 266 265 264 264
262 263 264 265 266 267 267 268 269 269 268 267 267 267 267 266 266 266 266 267 267 268 269 270 269 268 267 267 266 266 266 266 265 265 265 266 266 266 266 266 265 265 264
261 262 263 263 264 265 265 264 264 264 264 264 264 264 264 264 263 264 264 265 266 267 268 268 268 267 267 266 266 265 265 265 265 265 265 266 266 266 266 266 266 265 264
260 261 261 262 262 262 262 263 262 262 262 262 262 262 262 262 262 262 263 265 265 266 266 266 265 265 265 265 264 264 264 264 265 265 265 266 266 266 266 266 266 265 265
Wind_Speed
36 32 27 23 27 31 33 32 34 36 36 38 39 44 50 53 52 51 50 51 50 48 44 41 40 35 33 30 28 25 22 19 8 6 12 13 10 9 9 11 11 12 13
38 37 35 32 26 26 30 33 33 36 39 39 40 42 46 49 55 56 52 52 53 51 49 45 42 38 35 33 32 30 27 23 15 11 11 9 10 8 9 11 12 14 15
34 36 38 40 35 28 26 29 32 35 38 41 42 43 45 48 49 54 55 51 51 51 51 51 48 45 41 39 36 33 30 28 24 14 10 10 9 10 10 10 12 15 17
31 27 25 32 37 39 36 30 29 34 35 38 43 44 47 47 47 49 48 49 53 52 51 53 52 52 49 46 41 37 33 27 23 17 11 9 10 8 8 8 11 11 14
28 27 27 28 33 37 37 36 30 29 35 37 39 42 44 48 50 47 46 47 49 46 50 52 54 56 53 48 46 42 37 32 22 17 12 9 9 9 9 4 7 10 14
23 25 28 29 33 33 37 38 35 31 29 35 39 39 41 45 43 50 52 46 43 41 41 46 46 52 51 48 45 40 40 41 32 23 19 17 16 13 9 9 8 6 4
29 27 29 33 32 37 39 39 36 32 28 31 35 37 39 42 39 46 49 47 45 44 43 41 39 45 47 41 33 34 34 35 34 35 26 19 17 16 13 11 9 7 8
25 28 28 31 34 37 40 40 41 34 30 28 29 33 35 37 35 38 42 40 39 42 44 47 47 45 49 46 40 34 34 33 31 32 26 20 16 15 14 10 8 9 11
23 24 28 32 35 30 29 34 41 40 33 26 26 27 31 33 32 35 38 39 36 37 38 40 43 43 48 41 42 35 30 32 27 25 22 17 16 15 12 13 9 3 1
24 26 28 33 34 33 33 32 32 36 36 27 29 28 30 33 30 31 38 36 33 36 38 39 44 43 44 44 44 40 34 34 34 29 22 19 19 21 18 11 8 6 4
27 31 32 30 31 33 34 36 35 35 31 31 29 29 31 33 30 29 37 39 32 29 26 29 34 38 42 43 37 41 38 35 34 33 26 27 24 20 16 12 8 7 7
30 32 33 35 34 34 33 36 34 32 28 25 23 24 29 32 31 29 34 42 32 30 31 30 32 38 39 43 39 34 29 29 31 29 28 24 19 17 14 12 9 7 7
30 35 38 37 36 35 32 34 31 27 24 23 21 21 24 22 27 28 31 38 33 28 25 24 27 38 37 38 36 30 31 32 33 28 23 18 16 17 14 11 8 7 9
37 40 38 36 37 35 33 32 30 28 25 23 21 20 22 21 23 26 29 33 34 31 23 22 25 33 33 34 37 32 32 35 34 25 19 16 14 13 12 9 6 4 5
37 37 36 34 34 34 33 32 31 32 31 26 27 25 23 22 29 29 30 32 33 31 29 27 25 28 27 26 25 26 32 32 28 22 20 18 14 12 9 7 3 1 2
36 33 31 31 31 31 32 35 36 40 40 39 37 34 27 33 24 29 33 35 32 38 33 31 28 33 31 30 28 24 29 30 25 24 21 19 15 12 8 6 2 2 5
35 35 33 31 30 28 28 27 21 32 30 33 36 36 34 27 27 27 32 36 37 41 27 30 31 32 29 29 29 30 25 29 30 26 23 22 18 13 10 5 2 4 6
35 36 34 32 30 29 28 27 26 23 15 19 24 30 32 31 26 25 28 34 34 40 27 28 28 30 30 32 30 29 28 29 27 25 23 22 19 14 9 6 3 5 7
33 31 31 31 30 30 28 29 27 26 25 21 16 19 23 27 28 24 27 31 27 30 23 21 26 29 27 27 28 25 27 26 24 25 25 22 17 13 9 5 3 7 9
31 32 32 29 28 27 26 24 23 23 23 17 14 14 15 18 20 23 25 26 20 25 25 23 25 25 26 28 29 30 28 29 28 24 20 17 15 10 7 4 4 6 9
28 29 29 28 26 26 24 23 22 21 17 12 13 16 17 18 18 19 19 21 16 27 27 28 29 27 28 31 33 32 32 30 27 23 19 16 13 10 7 5 6 9 13
27 26 25 24 24 22 22 21 21 20 12 10 12 17 18 18 14 17 13 16 22 26 35 35 29 30 32 35 36 33 30 28 25 21 18 14 11 9 7 5 7 10 13
23 23 23 21 18 19 18 19 14 10 11 11 10 10 7 7 20 21 23 25 28 30 32 31 28 27 29 30 29 29 28 25 22 19 16 13 10 9 7 7 10 13 15
22 21 19 18 16 14 11 8 6 6 7 7 9 10 12 13 21 22 23 24 26 27 26 28 30 30 28 26 24 21 19 18 17 15 13 11 8 7 8 11 14 17 19
21 21 20 18 17 16 14 14 14 14 13 11 11 12 13 16 20 24 25 28 31 33 33 32 29 26 23 21 19 18 17 16 14 13 11 8 7 8 12 15 18 19 19
21 21 20 20 19 18 16 15 15 15 15 14 15 16 17 19 21 25 30 33 34 33 31 27 24 22 19 17 15 14 15 15 13 10 8 8 10 12 14 17 20 22 21
Wind_Direction
7 5 2 331 305 286 271 264 259 255 245 237 232 228 223 220 220 219 215 216 213 213 214 212 210 207 206 204 203 202 203 202 177 177 205 222 245 252 291 323 339 344 348
360 2 3 3 346 304 286 276 268 259 254 246 239 232 229 225 221 218 215 215 212 209 211 210 211 207 206 205 203 202 201 202 198 184 208 216 234 265 304 324 338 342 340
357 358 359 1 358 343 318 298 286 270 258 252 242 236 231 228 221 218 216 214 213 212 210 210 209 208 205 205 204 203 201 198 200 193 204 233 258 291 308 321 332 337 335
351 349 347 351 353 356 351 331 305 287 265 254 249 243 237 232 227 220 214 212 214 213 213 213 210 210 208 206 205 206 203 195 194 194 198 220 246 262 282 308 324 323 314
342 341 339 341 345 349 350 349 334 298 277 265 253 245 238 232 228 222 216 212 211 207 211 213 213 216 214 213 207 203 200 193 184 185 193 198 212 203 204 204 265 288 289
331 334 334 337 339 340 341 343 339 326 296 273 254 244 235 232 225 222 220 213 211 207 205 209 210 213 212 211 211 211 209 196 186 181 195 202 205 203 202 215 233 250 264
333 335 333 335 336 335 335 335 333 327 312 284 260 245 239 239 230 223 217 214 208 207 207 204 203 207 208 203 197 205 208 208 216 204 191 197 188 195 196 204 218 242 254
322 326 327 330 330 326 329 327 325 321 306 282 265 252 246 244 237 224 213 213 212 208 207 206 204 200 202 200 190 191 199 199 207 205 205 200 193 194 202 204 214 267 285
310 315 320 321 320 315 311 312 315 312 303 285 271 261 250 249 241 227 213 211 210 210 206 206 204 202 198 188 185 183 189 197 200 203 202 205 195 198 206 213 235 264 320
301 305 308 310 311 306 306 298 295 299 294 294 278 269 258 251 244 233 215 215 213 205 198 203 205 205 192 187 186 183 184 190 185 189 196 199 204 205 213 220 210 197 174
296 301 305 303 299 296 298 298 295 297 295 285 277 272 265 255 247 233 223 212 209 204 202 200 200 199 192 191 190 191 193 188 187 188 185 196 207 210 213 207 198 193 177
298 300 299 299 297 293 292 289 286 280 279 273 269 264 255 244 238 232 226 221 208 206 203 201 198 199 195 191 192 194 186 182 176 179 185 195 202 207 203 200 194 198 222
299 297 296 295 291 289 286 284 284 273 259 258 246 246 250 240 238 231 230 221 207 206 206 203 198 196 193 191 189 185 178 182 178 175 185 192 200 199 196 194 205 236 263
295 293 292 291 291 288 284 280 276 269 257 252 245 245 245 234 227 227 223 225 202 198 194 195 194 192 191 187 186 185 184 189 183 174 183 189 188 194 203 198 199 238 290
290 289 290 290 289 287 282 277 273 268 255 251 249 240 235 231 224 218 211 212 195 184 165 164 178 182 185 184 181 160 170 176 175 179 175 181 185 199 206 201 205 275 265
287 287 287 288 288 286 286 287 278 271 267 253 253 248 242 246 247 220 213 210 196 176 168 168 180 178 171 167 162 160 172 180 181 181 183 184 184 192 189 203 212 272 268
283 285 285 283 282 281 281 280 286 288 277 256 252 251 247 240 238 232 217 208 194 182 183 177 179 179 174 174 170 167 171 178 183 181 184 182 185 183 186 191 218 257 285
286 283 281 279 276 276 274 273 272 271 276 260 252 259 249 240 225 223 219 211 184 191 192 185 184 178 170 166 170 172 167 171 176 178 177 181 180 181 178 186 233 289 300
289 284 279 275 273 271 272 273 275 279 279 267 258 261 268 232 226 208 213 218 191 191 183 179 172 166 168 170 167 168 166 168 175 180 180 179 178 177 179 193 262 302 298
292 286 283 279 274 270 267 268 270 268 271 254 251 256 253 236 223 193 202 220 210 186 165 162 162 165 166 163 159 162 164 171 180 183 177 176 176 178 183 210 271 292 303
297 292 285 279 271 268 267 265 266 268 260 248 250 255 250 239 211 186 198 210 197 152 156 150 161 160 159 161 168 169 173 176 178 177 175 177 180 184 193 224 282 306 308
303 298 293 285 275 264 262 265 266 267 251 247 257 256 257 249 192 174 179 153 143 143 154 169 167 170 178 176 171 169 173 174 176 177 177 180 190 198 211 255 288 300 302
316 314 312 307 298 277 255 263 259 251 253 257 263 262 264 118 119 123 129 139 148 154 163 169 169 166 166 163 166 172 173 176 179 180 182 188 199 213 232 274 296 295 295
336 335 338 345 355 7 16 23 32 47 80 83 87 98 107 113 124 133 140 143 146 148 149 150 151 149 149 154 161 163 166 169 176 181 190 200 214 230 257 276 290 294 287
357 357 359 3 9 13 22 34 39 45 53 60 68 81 101 112 112 125 133 135 135 134 132 134 139 143 149 157 160 165 174 181 187 191 200 216 233 253 268 277 286 290 290
9 13 15 15 16 20 26 30 35 41 46 54 66 76 88 94 104 114 123 127 126 125 127 132 139 145 149 157 165 175 184 189 193 199 216 230 247 266 281 284 286 292 291